User: anonymous   Login
Location: Andrest
(43.3200°N, 0.0641°E)
Time: 21:19:08
(UTC+00:00)
Language:

Cosmos 2239 Rocket - Orbit

View from above orbital plane
View from above orbital plane
View from above satellite
View from above satellite

Ground track
Ground track

The orbit data is extracted from the following two-line orbital elements,

1 22591U 93020B   21055.45361691  .00000080  00000-0  64949-4 0  9995
2 22591  82.9279 115.2252 0024981 195.5924 175.7651 13.77444179402099
Epoch (UTC): 24 February 2021 10:53:12
Eccentricity: 0.0024981
inclination: 82.9279°
perigee height: 954 km
apogee height: 991 km
right ascension of ascending node: 115.2252°
argument of perigee: 195.5924°
revolutions per day: 13.77444179
mean anomaly at epoch: 175.7651°
orbit number at epoch: 40209

The dashed part of the orbit path shows where the satellite is in the earth's shadow,  

DLR